Location: Caltech
(34.1382°N, 118.1253°W)
Time: 20:20:26
(UTC-07:00)

AO-27 - Visible Passes

Search period start: 23 April 2014 00:00
Search period end: 03 May 2014 00:00
Orbit: 786 x 799 km, 98.7° (Epoch: 22 April)

Date Brightness Start Highest point End Pass type
(mag) Time Alt. Az. Time Alt. Az. Time Alt. Az.
23 Apr 9.1 02:45:48 10° NNE 02:48:47 34° NE 02:48:47 34° NE visible
23 Apr 9.5 04:27:07 10° NNW 04:29:34 15° WNW 04:29:34 15° WNW visible
24 Apr 9.8 02:17:34 10° NE 02:19:46 21° ENE 02:19:46 21° ENE visible
24 Apr 8.9 03:57:06 10° NNW 04:00:33 26° NW 04:00:33 26° NW visible
25 Apr 10.4 01:50:13 10° ENE 01:50:45 11° ENE 01:50:45 11° ENE visible
25 Apr 8.5 03:27:50 10° N 03:31:32 42° NNW 03:31:32 42° NNW visible
26 Apr 8.6 02:58:58 10° NNE 03:02:30 44° NNE 03:02:30 44° NNE visible
26 Apr 9.7 04:41:50 10° NW 04:42:58 11° WNW 04:43:17 11° WNW visible
27 Apr 9.3 02:30:31 10° NNE 02:33:29 29° NE 02:33:29 29° NE visible
27 Apr 9.2 04:10:48 10° NNW 04:14:16 21° WNW 04:14:16 21° WNW visible
28 Apr 10.0 02:02:39 10° NE 02:04:28 17° ENE 02:04:28 17° ENE visible
28 Apr 8.5 03:41:16 10° N 03:45:15 37° NW 03:45:15 37° NW visible
29 Apr 8.2 03:12:14 10° N 03:16:13 53° N 03:16:13 53° N visible
30 Apr 8.8 02:43:34 10° NNE 02:47:11 41° NE 02:47:11 41° NE visible
30 Apr 9.4 04:24:42 10° NNW 04:27:41 16° WNW 04:27:58 16° WNW visible
01 May 9.6 02:15:23 10° NE 02:18:09 23° ENE 02:18:09 23° ENE visible
01 May 8.7 03:54:47 10° N 03:58:56 29° WNW 03:58:56 29° WNW visible
02 May 10.3 01:48:10 10° ENE 01:49:07 12° ENE 01:49:07 12° ENE visible
02 May 8.1 03:25:33 10° N 03:29:54 51° NW 03:29:54 51° NW visible
